www.pogodaiklimat.ru

Погода и климат >> Архив погоды >> Китай >> Внутренняя Монголия >> Линьси


ПОГОДА в Линьси

  • Прогноз погоды в Линьси
  • Монитор погоды в Линьси

АРХИВ ПОГОДЫ в Линьси

Время (UTC), дата Ветер
(напр.,м/с)
 
Видим.   Явления Облачность Т
(С)
Тd
(С)
f
(%)
Тe
(С)
Тes
(С)
Комфортность P
(гПа)
Po
(гПа)
Тmin
(С)
Tmax
(С)
R
(мм)
R24
(мм)
S
(см)
06 15.04 З 7
{19}
29 км 3/3 1000 м
[]
+21.7 -80.0 1004.0 915.1 +5.8
09 15.04 З 6
{19}
30 км 8/8 1000 м
[]
+21.0 -37.3 1 +19 +19 1002.8 913.8
12 15.04 З 3
{19}
30 км 8/8 1000 м
[]
+15.4 -29.7 3 +15 +15 1003.6 912.9
18 15.04 З 5 30 км ?/? +13.7 -25.3 5 +12 +12 1001.2 910.2 +22.2
21 15.04 З 7 30 км н/о +12.7 -18.2 10 +11 +11 1000.6 909.3
00 16.04 ЮЗ 7 30 км ясно +16.3 -14.2 11 +15 +17 1001.8 911.5
03 16.04 З 8 30 км ясно +21.4 -22.4 4 +19 +22 1002.0 913.2
06 16.04 З 6 30 км ясно +23.4 -24.2 3 +20 +25 999.0 911.0 +6.5
09 16.04 З 5 30 км ясно +22.1 -25.1 3 +19 +21 998.4 910.1
12 16.04 штиль 0 18 км 6/6 1000 м
[]
+14.2 -17.0 10 +14 +14 999.5 908.8
18 16.04 З 7 18 км ?/? +17.1 -7.4 18 +16 +16 993.8 904.5 +24.0
21 16.04 ЮЗ 7 15 км н/о +16.4 -4.8 23 +15 +15 991.0 901.7
00 17.04 ЮЗ 8 12 км 9/9 1000 м
[]
+18.1 -4.6 21 +17 +17 989.6 900.9
03 17.04 З 9
{22}
9000 м 9/9 1000 м
[]
+24.2 -12.1 8 +21 +22 комфорт 987.2 900.5
06 17.04 СЗ 10
{24}
2500 м пыльный позёмок 9/9 1000 м
[]
+21.1 -11.7 10 +20 +20 989.6 901.8 +7.4
09 17.04 С 8
{24}
6000 м мгла 8/8 1000 м
[]
+14.2 -11.3 16 +12 +12 998.0 907.4
12 17.04 СЗ 8
{21}
17 км 3/3 1000 м
[]
+8.8 -6.6 33 +5 +5 1005.3 912.4
18 17.04 С 2 30 км ?/? +3.0 -9.0 41 +1 +1 1013.2 917.7 +25.8
21 17.04 С 5 30 км н/о +0.8 -9.5 46 -4 -4 1017.4 920.8
00 18.04 С 3 30 км ясно +2.9 -13.8 28 0 +4 1021.6 925.3
03 18.04 С 3 30 км 1/1 1000 м
[]
+6.7 -17.4 16 +5 +16 опасность
простуды
1022.1 927.0
06 18.04 С 5 30 км 8/8 1000 м
[]
+10.5 -21.1 9 +9 +10 1020.2 926.5 +0.2
09 18.04 С 4 30 км 9/9 1000 м
[]
+10.4 -18.8 11 +9 +9 1019.3 925.6
12 18.04 С 2 30 км 9/9 1000 м
[]
+7.2 -17.7 15 +6 +6 1019.5 924.8
18 18.04 С 2 30 км ?/? +3.8 -16.5 21 +2 +2 1020.1 924.2 +11.8
21 18.04 С 3 30 км н/о -1.4 -17.1 29 -5 -5 1020.9 923.2
00 19.04 штиль 0 30 км ясно +7.2 -17.0 16 +7 +14 1019.5 924.8
03 19.04 З 3 30 км 3/3 1000 м
[]
+12.3 -17.3 11 +12 +20 1017.2 924.3
06 19.04 З 5 30 км 1/1
[]
+16.2 -14.3 11 +15 +22 1012.8 921.5 -2.6
09 19.04 З 6 24 км н/о +17.2 -13.5 11 +16 +16 1010.2 919.4
12 19.04 СЗ 2 30 км 8/8 1000 м
[]
+13.4 -14.5 13 +13 +13 1008.7 916.9
18 19.04 С 2 30 км ?/? +6.9 -12.3 24 +6 +6 1004.5 911.1 +17.7
21 19.04 штиль 0 17 км н/о +7.2 -9.6 29 +7 +7 1004.6 911.3
00 20.04 С 9
{17}
4900 м пыльный позёмок 9/9 1000 м
[]
+6.9 -15.1 19 +3 +3 1010.3 916.3
03 20.04 С 9
{17}
8000 м 9/9 1000 м
[]
+7.8 -16.5 16 +4 +4 1013.0 919.1
06 20.04 С 9 23 км 8/8 1000 м
[]
+12.5 -18.3 10 +10 +10 1012.3 919.9 +5.9
09 20.04 С 7 30 км 6/6 1000 м
[]
+12.0 -24.5 6 +10 +10 1013.0 920.4
12 20.04 СЗ 1 30 км 8/8 1000 м
[]
+5.7 -22.5 11 +6 +6 1016.7 921.7
18 20.04 С 2 30 км ?/? +1.6 -20.2 18 -0 -0 1016.9 920.1 +13.1
21 20.04 штиль 0 30 км н/о +1.8 -16.1 25 +2 +2 1016.8 920.6
00 21.04 З 1 30 км 3/3 1000 м
[]
+7.7 -20.9 11 +8 +12 1016.9 922.6
03 21.04 З 2 30 км 4/4 1000 м
[]
+12.7 -22.3 7 +13 +22 1014.6 922.1
06 21.04 З 5 30 км 6/6 1000 м
[]
+16.9 -21.0 6 +16 +19 1010.9 920.0 -0.3
09 21.04 З 5 25 км 8/8 1000 м
[]
+17.1 -19.0 7 +17 +17 1008.7 918.0
12 21.04 З 5 22 км 9/9 1000 м
[]
+15.2 -15.1 11 +14 +14 1009.0 917.7
18 21.04 С 2 21 км ?/? +10.6 -9.1 24 +10 +10 1007.1 914.6 +17.9
21 21.04 С 3 20 км н/о +8.1 -9.8 27 +6 +6 1005.6 912.4
00 22.04 ЮЗ 4 13 км 6/6 1000 м
[]
+17.3 -1.4 28 +17 +19 1002.6 910.0 0.0
03 22.04 З 7 19 км 9/9 1000 м
[]
+26.0 -3.5 14 +24 +24 комфорт 999.6 912.3

 

Местоположение метеостанции Линьси (Внутренняя Монголия, Китай): широта 43.60 долгота 118.06 высота над уровнем моря 800 м.

В архиве по умолчанию представлена погода в Линьси за последнюю неделю. Архивные данные за месяц целиком и за предыдущие месяцы, начиная с января 2011 года, Вы можете получить, выбрав интересующий диапазон дат из раскрывающегося списка и нажав кнопку "Ввод!".


*Определитесь, кто Вы:
робот инопланетянин человек

Внимание! Время в таблицах - всемирное. Для получения местного времени необходимо прибавить поправку, которая равна 8 ч.

Смотрите также архив погоды в соседних городах и на ближайших метеорологических станциях:

Погода в Си-Уджимчин-Ци (Внутренняя Монголия, Китай) (115 км)
Погода в Байрин-Цзоци (Внутренняя Монголия, Китай) (116 км)
Погода в Шилин-Хото (Внутренняя Монголия, Китай) (161 км)
Погода в Чифэне (Внутренняя Монголия, Китай) (165 км)
Погода в Вэйчане (Хэбэй, Китай) (187 км)
Погода в Долуне (Внутренняя Монголия, Китай) (205 км)
Погода в Дун-Уджимчин-Ци (Внутренняя Монголия, Китай) (231 км)
Погода в Джаруд-Ци (Внутренняя Монголия, Китай) (251 км)
Погода в Баянчагане (Внутренняя Монголия, Китай) (254 км)
Погода в Дабейва (Внутренняя Монголия, Китай) (257 км)

Пояснения к столбцам:

Ветер - указаны скорость ветра в м/с - средняя за 10 мин, порывы в срок и между сроками (в фигурных скобках) и направление, откуда дует ветер: С - северный, СВ - северо-восточный, В - восточный, ЮВ - юго-восточный, Ю - южный, ЮЗ - юго-западный, З - западный, СЗ - северо-западный.
Видимость - горизонтальная дальность видимости в метрах или километрах. При видимости от 1 до 10 км при отсутствии осадков обычно наблюдается дымка, при ухудшении видимости до 1 км и менее - туман. В сухую погоду видимость может ухудшаться дымом, пылью или мглою.
Явления - указаны атмосферные явления, наблюдавшиеся в срок или в последний час перед сроком; фигурными скобками обозначены явления, наблюдавшиеся между сроками (за 1-3 часа до срока); квадратными скобками обозначены град или гололедные отложения с указанием их диаметра в мм.
Облачность - указаны через наклонную черту общая и нижняя облачность в баллах и высота нижней границы облаков в метрах; квадратными скобками обозначены формы облаков: Ci - перистые, Cs - перисто-слоистые, Cc - перисто-кучевые, Ac - высококучевые, As - высокослоистые, Sc - слоисто-кучевые, Ns - слоисто-дождевые, Cu - кучевые, Cb - кучево-дождевые. Подробнее классификацию облаков см. в Атласе облаков (PDF).
T - Температура воздуха - температура, измеренная на высоте 2 м над землей.
Td - Температура точки росы - температура, при понижении до которой содержащийся в воздухе водяной пар достигнет насыщения.
f - Относительная влажность воздуха - влажноcть воздуха, измеренная на высоте 2 м над землей.
Te - Эффективная температура - температура, которую ощущает одетый по сезону человек в тени. Характеристика душности погоды. При расчете учитывается влияние влажности воздуха и скорости ветра на теплоощущения человека.
Tes - Эффективная температура на солнце - температура, которую ощущает человек, с поправкой на солнечный нагрев. Характеристика знойности погоды. Зависит от высоты солнца над горизонтом, облачности и скорости ветра. Ночью, в пасмурную погоду, а также при ветре 12 м/с и более поправка равна нулю.
P - Атмосферное давление - приведенное к уровню моря атмосферное давление.
Po - Атмосферное давление - измеренное на уровне метеостанции атмосферное давление.
Tmin - Минимальная температура - минимум температуры воздуха на высоте 2 м над землей.
Tmax - Максимальная температура - максимум температуры воздуха на высоте 2 м над землей.
R - Количество осадков - Количество выпавших осадков за период времени, мм. При наведении курсора мыши на число - период времени, за который выпало указанное количество осадков.
R24 - Количество осадков - Количество выпавших осадков за 24 часа, мм.
S - Снежный покров - Высота снежного покрова, см. При наведении курсора мыши на число - состояние снежного покрова и степень покрытия местности в баллах.